Columbia, MO

7:43 PM CST on December 16, 2017 (GMT -0600)
Columbia Regional

Weather History for KCOU - February, 2015

Change the Weather History Date:

Thursday, February 26, 2015

  Actual Average Record
Temperature  
Mean Temperature 21 °F 38 °F  
Max Temperature 35 °F 48 °F 77 °F (1996)
Min Temperature 7 °F 28 °F -1 °F (1934)
Degree Days  
Heating Degree Days 44 27  
Month to date heating degree days 998 804  
Since 1 July heating degree days 3957 3893  
Cooling Degree Days 0 0  
Month to date cooling degree days 0 0  
Year to date cooling degree days 0 0  
Moisture  
Dew Point 10 °F    
Average Humidity 69    
Maximum Humidity 91    
Minimum Humidity 46    
Precipitation  
Precipitation T in 0.08 in 1.42 in (1998)
Month to date precipitation 1.04 2.07  
Year to date precipitation 1.98 3.99  
Snow  
Snow T in 0.20 in 9.50 in (2013)
Month to date snowfall 5.0 4.5  
Since 1 July snowfall 6.9 15.9  
Snow Depth T in    
Sea Level Pressure  
Sea Level Pressure 30.27 in    
Wind  
Wind Speed 16 mph (North)    
Max Wind Speed 29 mph    
Max Gust Speed 35 mph    
Visibility 8 miles    
Events Rain , Snow    
T = Trace of Precipitation, MM = Missing Value Source: NWS Daily Summary

Daily Weather History Graph

Daily Weather History Graph

Search for Another Location

Airport or City:

Trip Planner

Search our weather history database for the weather conditions in past years. The results will help you decide how hot, cold, wet, or windy it might be!

Date:

Astronomy

Feb. 26, 2015 Rise Set
Actual Time 6:45 AM CST 5:58 PM CST
Civil Twilight 6:19 AM CST 6:25 PM CST
Nautical Twilight 5:48 AM CST 6:56 PM CST
Astronomical Twilight 5:17 AM CST 7:26 PM CST
Moon 12:01 PM CST (2/26) 1:40 AM CST (2/26)
Length of Visible Light 12h 06m
Length of Day
11h 12m
First Quarter, 61% of the Moon is Illuminated
Feb 26
First Quarter
Mar 5
Full
Mar 13
Last Quarter
Mar 20
New
Mar 27
First Quarter

Hourly Weather History & Observations

Time (CST) Temp. Windchill Dew Point Humidity Pressure Visibility Wind Dir Wind Speed Gust Speed Precip Events Conditions
12:36 AM 30.0 °F 16.6 °F 26.1 °F 85% 29.91 in 10.0 mi North 23.0 mph 31.1 mph N/A   Overcast
12:54 AM 26.1 °F 11.3 °F 21.9 °F 84% 29.95 in 9.0 mi North 23.0 mph 31.1 mph N/A   Overcast
1:12 AM 24.1 °F 8.7 °F 19.9 °F 84% 29.95 in 6.0 mi North 23.0 mph 29.9 mph 0.00 in   Overcast
1:21 AM 24.1 °F 8.0 °F 19.9 °F 84% 29.96 in 5.0 mi North 25.3 mph 33.4 mph 0.00 in Rain Light Freezing Rain
1:32 AM 23.0 °F 6.3 °F 19.9 °F 88% 29.96 in 5.0 mi North 26.5 mph 31.1 mph 0.00 in Snow Light Snow
1:52 AM 23.0 °F 8.0 °F 19.4 °F 86% 29.97 in 3.0 mi North 20.7 mph 28.8 mph 0.00 in Snow Light Snow
1:54 AM 23.0 °F 7.2 °F 19.9 °F 88% 29.99 in 3.0 mi North 23.0 mph - 0.00 in Snow Light Snow
2:54 AM 19.9 °F 3.5 °F 17.1 °F 89% 30.04 in 4.0 mi North 21.9 mph 29.9 mph 0.00 in Snow Light Snow
3:22 AM 19.9 °F 2.2 °F 16.0 °F 85% 30.04 in 8.0 mi North 26.5 mph 34.5 mph 0.00 in   Overcast
3:54 AM 19.0 °F 1.0 °F 15.1 °F 85% 30.08 in 7.0 mi North 26.5 mph 33.4 mph 0.00 in   Overcast
4:47 AM 19.0 °F 2.4 °F 14.0 °F 81% 30.11 in 10.0 mi North 21.9 mph - 0.00 in   Overcast
4:54 AM 19.4 °F 4.1 °F 14.0 °F 80% 30.11 in 10.0 mi North 18.4 mph 31.1 mph N/A   Overcast
5:54 AM 18.0 °F 1.3 °F 12.0 °F 78% 30.17 in 5.0 mi North 20.7 mph - 0.00 in Snow Light Snow
6:54 AM 16.0 °F -1.3 °F 10.9 °F 81% 30.21 in 7.0 mi NNW 20.7 mph - 0.00 in Snow Light Snow
7:54 AM 16.0 °F 2.3 °F 10.9 °F 81% 30.27 in 5.0 mi NNW 12.7 mph - 0.00 in Snow Light Snow
8:54 AM 17.1 °F 1.5 °F 10.9 °F 77% 30.30 in 8.0 mi North 17.3 mph - 0.00 in Snow Light Snow
9:54 AM 17.1 °F 2.0 °F 10.0 °F 74% 30.32 in 9.0 mi NNW 16.1 mph - 0.00 in   Overcast
10:54 AM 19.9 °F 3.9 °F 12.9 °F 74% 30.33 in 10.0 mi NW 20.7 mph - 0.00 in   Overcast
11:35 AM 21.0 °F 6.6 °F 10.9 °F 65% 30.31 in 10.0 mi NNW 17.3 mph 25.3 mph N/A   Scattered Clouds
11:54 AM 21.0 °F 8.6 °F 10.9 °F 65% 30.35 in 10.0 mi NNW 12.7 mph - N/A   Scattered Clouds
12:54 PM 21.9 °F 9.2 °F 9.0 °F 58% 30.35 in 10.0 mi NNW 13.8 mph - N/A   Mostly Cloudy
1:54 PM 21.2 °F 7.8 °F 8.6 °F 58% 30.32 in 10.0 mi NW 15.0 mph 21.9 mph N/A   Overcast
2:54 PM 24.8 °F 12.4 °F 6.8 °F 46% 30.34 in 10.0 mi North 15.0 mph 20.7 mph N/A   Overcast
3:54 PM 23.0 °F 10.6 °F 6.1 °F 48% 30.39 in 10.0 mi North 13.8 mph 20.7 mph N/A   Overcast
4:54 PM 19.9 °F 6.2 °F 3.0 °F 48% 30.42 in 10.0 mi NW 15.0 mph - N/A   Mostly Cloudy
5:54 PM 18.0 °F 4.2 °F 3.0 °F 52% 30.45 in 10.0 mi NW 13.8 mph - N/A   Scattered Clouds
6:54 PM 16.0 °F 2.3 °F 3.0 °F 57% 30.50 in 10.0 mi NNW 12.7 mph - N/A   Partly Cloudy
7:54 PM 12.9 °F -0.2 °F 1.9 °F 62% 30.52 in 10.0 mi North 10.4 mph - N/A   Clear
8:54 PM 10.9 °F -3.4 °F 1.0 °F 64% 30.54 in 10.0 mi North 11.5 mph - N/A   Clear
9:54 PM 10.0 °F -3.7 °F -0.0 °F 64% 30.57 in 10.0 mi North 10.4 mph - N/A   Clear
10:54 PM 9.0 °F -5.9 °F -0.9 °F 64% 30.58 in 10.0 mi North 11.5 mph - N/A   Clear
11:54 PM 7.0 °F -6.6 °F -0.9 °F 70% 30.60 in 10.0 mi NNE 9.2 mph - N/A   Clear